Temp
25 24 24 24 24 23 24 23 24 24 24 23 23 23 24 24 24 24 24 25 24 25 25 25 25 24 25 25 26 25 26 27 28 29 27 27 25 25 25 23 24 24 25
25 24 24 24 24 24 24 24 24 24 24 24 23 23 24 24 24 24 24 26 25 25 25 25 25 25 24 24 25 25 26 26 27 27 27 27 25 26 25 24 23 26 26
25 25 25 24 24 25 25 24 24 24 23 24 24 24 24 24 24 24 24 24 25 25 25 25 25 25 25 26 24 25 26 26 26 26 27 27 27 26 26 24 24 25 25
26 25 25 25 25 25 25 24 24 24 24 24 24 24 24 24 24 24 24 24 24 25 25 25 25 25 25 25 25 25 25 25 26 26 27 28 28 27 26 26 27 27 27
25 25 25 24 25 25 25 24 24 24 24 24 24 24 24 24 25 25 24 24 24 25 25 25 25 25 24 24 25 26 25 25 26 28 28 28 28 28 27 27 27 27 27
24 24 24 24 24 24 24 24 23 23 23 24 24 24 24 25 26 25 25 25 25 25 25 25 25 24 23 23 23 24 23 24 24 26 28 28 27 26 27 27 27 27 28
24 24 23 23 23 23 23 23 23 23 23 23 23 24 24 24 24 24 24 24 25 25 25 25 25 26 25 24 24 23 23 23 23 23 23 24 25 25 24 24 24 24 24
24 23 23 23 23 23 23 23 23 23 23 23 23 23 23 24 23 23 23 23 24 25 25 25 25 25 25 25 24 24 24 24 23 23 23 23 23 23 23 23 23 23 23
24 24 23 23 23 23 22 23 23 23 23 23 23 23 23 23 23 23 23 23 23 23 24 24 24 24 24 24 23 24 24 25 24 23 23 23 23 23 23 22 22 22 23
22 23 23 23 23 23 23 23 23 23 23 24 24 24 23 23 23 23 23 24 25 25 24 24 24 24 24 23 22 23 24 24 24 22 22 22 22 21 22 21 21 21 21
21 20 21 22 22 23 23 23 23 23 24 23 23 23 23 24 23 24 23 23 25 25 23 23 23 23 23 22 22 22 23 24 23 23 22 21 21 20 19 19 18 19 19
21 20 20 21 22 23 23 23 23 23 23 23 23 22 23 23 24 23 23 23 23 23 24 23 23 21 22 22 21 22 21 21 22 23 21 21 19 18 19 19 18 18 18
21 21 21 21 22 22 22 22 23 23 24 25 25 25 26 26 24 22 22 22 22 22 22 21 21 20 20 19 20 20 20 20 22 22 22 21 20 20 19 17 16 16 15
21 20 21 21 22 22 23 23 24 25 25 26 27 27 27 27 26 22 19 21 20 20 20 19 19 19 18 20 19 18 20 22 22 23 22 21 20 19 20 20 20 19 20
21 21 21 21 22 23 22 24 24 25 25 24 27 27 27 26 25 23 21 21 20 21 20 19 17 18 18 20 19 20 21 20 21 22 22 21 20 20 20 19 19 19 21
22 22 23 23 23 24 25 23 21 21 22 22 23 23 27 26 25 22 20 21 20 20 20 21 20 20 19 21 20 20 21 20 21 21 21 21 21 21 20 19 19 21 21
21 22 22 23 24 25 25 25 23 18 20 20 20 21 23 24 23 22 22 21 20 19 21 22 21 20 21 21 21 21 22 21 20 21 21 21 21 21 19 20 20 20 21
20 20 21 23 24 25 25 25 23 23 19 18 19 20 21 22 21 22 21 19 17 17 22 24 23 23 23 21 21 22 22 20 20 21 21 21 21 20 21 21 21 21 21
20 21 22 23 23 24 24 23 20 20 19 19 17 18 19 19 19 20 21 20 21 20 21 23 24 24 23 22 22 22 21 21 21 20 21 21 21 21 21 21 21 19 20
21 20 20 23 23 22 20 19 18 17 17 18 17 17 16 16 16 16 17 20 23 23 22 23 24 24 24 23 22 21 21 20 20 20 21 20 20 20 21 21 20 20 19
21 22 20 20 20 20 19 19 18 18 18 18 17 20 15 18 20 18 16 18 22 24 24 23 23 22 23 22 21 21 21 21 20 20 21 20 20 20 20 21 20 20 21
20 21 21 21 22 22 19 17 17 17 18 18 18 18 18 18 22 22 21 21 21 22 23 23 23 22 22 22 21 21 22 21 21 21 21 20 20 20 20 20 20 20 20
19 19 20 21 22 21 19 17 16 16 16 17 17 16 14 18 23 23 23 22 22 22 22 22 22 23 23 22 22 22 22 22 22 21 21 21 21 20 20 20 20 20 20
18 20 20 20 20 20 19 17 17 17 16 17 17 17 16 19 22 23 23 23 23 22 22 22 22 23 23 23 22 22 22 22 22 21 20 20 20 20 20 20 21 20 21
17 18 19 19 19 19 18 17 17 16 17 18 18 19 20 21 22 23 23 23 22 22 22 22 22 22 22 22 23 22 22 22 21 21 20 19 20 20 20 20 21 21 21
17 16 17 18 18 18 16 17 17 17 16 18 18 19 19 21 22 23 23 23 23 22 22 22 22 22 22 22 22 21 21 20 20 19 20 21 20 19 19 20 19 20 21
Height
786 790 793 797 802 806 809 812 815 817 819 820 822 824 825 828 830 831 832 833 834 834 835 835 835 836 835 835 835 836 835 834 832 829 832 833 834 834 834 834 835 835 834
781 786 790 793 796 800 803 807 810 813 816 818 819 821 822 825 826 827 829 829 830 831 832 833 833 833 833 832 833 833 833 833 833 832 830 830 832 832 833 832 831 832 831
777 781 783 787 791 793 797 802 805 809 811 814 815 817 818 820 822 822 823 826 826 827 828 829 829 830 830 829 831 831 831 831 832 831 829 827 828 829 829 829 829 828 828
772 774 777 781 784 788 791 795 799 803 806 809 811 812 815 816 817 819 819 820 822 823 824 824 826 826 827 827 828 829 829 829 828 828 827 824 825 825 827 826 824 823 823
768 769 771 775 779 783 786 789 792 796 799 803 806 808 810 812 813 814 816 817 818 819 819 819 820 821 822 822 823 824 825 826 824 822 820 820 820 820 821 822 821 821 820
764 765 768 770 772 776 779 783 787 789 792 796 799 802 805 806 807 809 811 812 813 813 814 814 815 816 817 818 819 820 822 823 823 821 817 816 818 820 820 819 818 817 815
758 761 763 765 767 769 773 776 779 783 786 789 792 795 797 799 801 803 805 808 808 809 810 810 810 808 810 812 813 814 815 816 818 819 820 818 817 817 818 817 817 818 817
754 755 757 760 762 764 766 769 771 774 778 782 785 787 789 791 793 796 798 801 804 804 805 805 805 805 806 807 808 809 809 810 811 812 813 813 814 814 815 815 814 814 813
749 750 752 755 756 758 760 762 765 768 770 773 777 780 781 783 785 788 792 795 796 798 799 800 800 799 801 801 803 804 804 804 805 806 807 807 807 809 809 811 810 810 809
746 742 744 746 749 752 754 756 759 762 764 766 769 771 774 776 778 780 783 787 788 789 791 792 792 794 795 795 797 798 798 797 799 800 801 800 801 803 803 805 806 806 806
741 740 739 741 740 744 748 750 752 755 758 760 761 763 765 768 770 773 777 781 783 783 784 785 786 786 787 789 791 791 792 792 793 794 795 796 798 798 801 802 802 802 803
739 735 730 729 733 735 741 744 745 748 752 754 756 757 758 760 764 766 769 773 777 778 779 779 781 781 782 784 784 784 785 786 787 787 790 791 793 795 796 797 797 798 798
735 734 733 724 714 736 735 737 738 740 743 744 746 747 749 752 755 757 762 767 770 772 774 775 776 777 779 781 779 780 780 781 781 783 785 786 789 791 793 793 794 795 795
733 730 727 730 733 734 728 729 730 730 733 735 735 737 740 744 747 751 754 759 764 768 770 771 772 774 776 777 776 777 778 777 777 778 781 784 786 788 789 790 791 792 793
726 725 724 723 723 724 722 722 723 723 726 729 727 730 732 739 740 743 747 752 758 763 766 768 769 772 774 774 774 774 774 774 775 776 778 782 784 786 787 788 789 790 789
719 718 716 716 715 716 711 716 719 720 718 722 723 725 726 730 734 737 741 746 752 758 762 763 765 768 769 769 769 769 769 770 771 774 777 780 782 784 786 787 787 786 787
712 712 711 711 709 707 708 712 712 713 713 716 719 722 724 727 729 731 735 741 748 754 756 756 758 762 762 764 765 765 765 767 768 771 773 776 779 781 783 784 785 785 785
706 705 705 704 702 702 702 703 706 706 708 711 711 714 718 722 727 728 732 737 744 749 749 748 749 752 755 760 761 761 762 765 766 767 771 773 776 779 781 781 782 782 783
698 697 696 695 696 695 695 698 701 701 703 704 705 708 712 716 721 725 727 732 737 743 744 743 742 745 749 754 755 758 761 764 764 765 768 770 772 774 776 777 776 779 783
689 688 689 687 687 690 692 694 695 696 698 699 699 703 706 714 715 717 723 729 730 732 735 737 735 738 743 748 751 755 759 761 762 762 763 766 768 771 773 775 775 773 779
679 677 680 684 684 686 687 687 688 690 693 693 694 697 699 705 709 712 716 725 724 724 726 729 731 734 738 744 749 751 752 755 757 758 759 762 766 767 771 772 774 772 772
674 672 674 677 676 677 682 683 683 685 686 687 691 692 696 701 703 707 712 718 719 720 720 722 727 729 732 737 743 743 745 748 752 753 755 756 759 763 766 769 769 769 770
670 669 670 672 672 674 677 679 679 680 680 684 688 688 693 697 698 701 705 709 712 714 716 717 722 722 725 730 736 737 738 741 744 749 751 752 753 756 759 762 765 765 765
667 666 667 669 671 673 674 677 678 681 684 680 690 691 691 693 696 697 701 703 705 707 710 711 715 717 720 723 728 730 733 735 737 741 746 748 749 750 753 755 758 759 760
666 665 664 666 667 670 673 676 678 681 682 683 684 680 688 692 694 695 698 699 702 704 706 707 709 712 715 717 721 723 726 729 733 735 738 742 742 745 747 748 750 752 753
665 665 665 665 667 669 671 672 674 676 679 679 680 684 687 689 691 691 691 693 696 698 700 702 704 707 710 713 717 720 722 724 728 731 732 734 736 738 739 741 744 746 747
Wind_Speed
23 22 23 24 23 23 20 19 18 16 14 14 15 15 15 14 13 13 13 10 11 10 8 8 8 7 7 6 7 6 7 6 7 7 2 3 3 3 5 6 8 8 13
23 23 23 23 24 24 24 21 19 19 17 15 14 14 15 16 14 14 12 12 13 12 11 10 9 9 8 9 9 7 7 7 9 6 7 7 6 5 6 8 8 9 10
22 23 23 24 24 26 25 24 21 19 18 17 16 16 17 17 16 15 13 14 14 12 13 12 11 9 9 8 7 8 10 9 9 10 10 9 7 7 8 8 8 9 11
23 23 24 25 25 25 26 25 25 22 21 20 19 18 17 17 16 15 15 14 15 14 14 13 12 12 12 11 11 10 11 10 11 10 12 11 11 8 9 11 11 11 11
23 24 25 24 24 24 23 25 25 24 22 22 20 19 19 18 18 18 17 17 17 17 15 15 15 15 14 15 14 13 12 12 13 14 13 12 13 11 10 11 11 12 11
20 24 24 23 24 25 24 24 25 25 24 23 23 22 21 21 21 22 20 19 19 19 18 18 17 16 17 19 18 19 17 14 15 16 16 14 11 12 14 14 13 13 12
20 21 23 24 24 25 24 25 25 25 24 25 24 24 24 25 26 26 26 25 22 22 21 19 18 18 18 16 16 17 20 22 23 20 18 18 16 13 13 12 12 13 13
18 18 21 24 25 24 24 25 25 25 25 25 24 25 25 27 28 28 28 25 25 24 22 21 20 19 17 17 14 15 17 18 19 22 25 24 19 16 14 13 13 13 14
15 16 18 20 24 25 25 25 24 23 24 24 24 24 25 25 26 27 26 21 23 24 23 23 23 22 19 19 16 16 18 20 19 21 23 24 23 20 18 13 14 12 12
13 14 16 18 22 24 24 24 23 23 23 21 22 22 22 23 24 27 27 22 22 22 21 24 26 24 20 21 15 15 17 17 16 15 14 18 24 17 20 14 13 12 11
12 13 8 18 18 20 22 22 20 22 22 22 22 22 23 22 24 25 25 23 20 19 18 18 20 22 23 21 19 16 18 16 13 12 13 13 10 12 8 6 6 7 7
13 11 11 22 11 17 21 22 22 21 21 22 20 20 20 22 23 23 25 28 21 19 19 17 18 18 16 18 20 20 21 20 16 13 11 10 10 10 9 8 7 7 7
12 17 13 11 10 25 19 20 21 21 23 22 22 24 24 22 19 23 26 24 27 22 17 15 16 15 11 11 12 13 13 12 13 13 12 10 9 8 8 6 4 4 4
15 15 14 12 17 19 16 20 21 21 22 24 23 23 23 23 22 17 21 23 21 19 13 13 14 12 12 12 10 11 11 11 11 11 11 10 9 9 8 7 7 7 8
16 16 15 15 16 15 15 14 17 20 21 23 23 23 22 23 25 25 22 20 18 18 15 12 12 11 12 13 12 12 11 10 10 10 10 11 10 9 8 7 6 6 7
18 17 17 16 15 17 10 13 22 25 21 26 27 18 19 23 21 26 27 22 21 20 16 14 13 14 15 15 14 13 12 11 11 11 11 10 10 10 8 7 7 7 7
21 20 18 18 18 15 17 18 17 18 27 29 28 30 25 20 24 23 22 20 19 19 18 16 15 15 16 15 14 14 13 12 12 12 12 12 10 8 9 8 7 7 6
21 22 20 20 21 20 20 19 19 17 15 16 25 26 29 24 25 22 22 21 20 22 20 18 16 17 16 14 17 15 14 14 15 14 13 11 10 10 9 8 8 7 7
20 22 22 22 23 22 19 18 19 18 18 18 17 25 30 28 22 22 24 24 23 22 21 19 17 16 15 17 15 14 14 15 15 14 13 12 11 11 10 10 9 7 6
23 25 22 18 19 18 17 17 17 16 18 20 18 22 27 26 21 25 27 25 24 22 22 19 16 15 16 17 16 17 17 16 16 15 14 13 12 12 12 12 12 12 11
18 17 17 19 19 15 15 17 17 18 20 19 20 24 27 27 23 22 23 26 25 21 20 18 19 17 18 18 20 19 18 17 18 17 16 14 13 13 13 12 13 13 12
16 15 14 18 17 11 11 12 16 20 21 18 19 21 24 25 21 21 23 27 26 23 20 20 21 22 22 22 23 21 20 19 18 18 17 16 15 14 13 15 15 15 14
15 15 14 17 17 11 10 10 11 12 9 11 14 17 22 25 20 21 22 24 23 23 22 20 22 22 23 23 24 22 21 20 20 19 18 17 16 16 15 15 16 17 17
11 12 14 15 13 13 13 10 12 15 13 18 13 12 18 19 18 19 20 20 20 20 20 20 21 23 23 24 24 23 22 21 20 20 20 19 18 16 16 15 16 18 18
7 9 12 8 9 11 10 8 14 12 15 17 16 13 16 17 17 18 18 17 17 17 18 19 21 23 24 24 24 23 23 21 21 18 19 21 21 20 20 19 18 17 19
3 5 8 8 8 11 12 7 5 5 6 10 12 14 17 19 21 20 18 18 17 17 17 19 21 22 23 25 26 26 21 22 24 25 20 18 20 24 24 24 22 20 20
Wind_Direction
202 200 198 201 206 208 212 213 213 212 208 206 208 220 217 213 214 218 227 235 224 229 238 234 232 232 238 246 251 248 262 242 263 287 246 253 259 247 235 224 236 247 237
204 202 204 202 206 212 215 214 216 219 218 215 210 216 216 217 219 226 232 234 228 228 230 238 243 236 229 237 250 248 256 258 267 257 284 269 238 253 252 245 242 246 243
205 208 205 206 208 212 213 215 216 220 221 221 217 218 222 222 228 229 224 231 234 229 231 229 235 233 238 242 230 241 242 243 250 263 278 263 269 269 264 255 251 255 252
211 210 211 210 210 213 214 214 217 219 220 221 222 220 223 225 226 233 239 226 227 230 233 230 234 233 238 240 243 248 255 259 252 258 266 266 258 259 270 278 271 247 260
217 217 216 213 214 213 215 215 214 214 218 220 224 228 229 232 230 231 236 238 230 231 233 230 236 240 234 232 240 239 250 246 255 254 251 257 259 254 244 268 273 276 273
226 224 219 215 211 211 211 213 215 214 215 217 222 229 234 237 239 239 238 239 236 231 229 232 240 241 243 246 240 243 244 246 254 268 272 268 269 263 260 262 264 272 280
232 231 224 217 215 210 210 211 211 216 217 219 224 228 233 239 244 244 246 238 240 240 239 238 239 238 230 240 248 250 250 247 246 250 256 264 280 266 267 267 268 274 271
243 236 228 221 217 214 212 213 213 213 217 220 224 228 232 239 240 244 240 237 241 246 243 241 238 239 237 237 239 244 247 250 249 247 247 254 256 264 256 259 263 268 270
249 245 240 229 224 218 216 215 215 214 214 219 225 229 231 236 237 239 237 229 235 241 245 246 243 239 238 235 235 246 258 261 258 255 250 248 253 255 248 260 262 264 270
295 243 236 236 231 226 222 219 216 217 221 221 226 229 234 237 236 235 231 224 233 239 244 245 247 237 239 234 232 245 253 258 264 261 254 254 248 251 251 247 259 257 269
274 276 278 245 230 232 230 222 217 219 225 224 225 226 228 233 235 238 227 220 241 248 247 244 240 243 230 238 240 239 246 251 257 258 250 244 230 214 221 228 230 237 243
271 283 256 269 241 236 229 226 218 216 221 224 227 232 234 233 239 233 228 229 231 235 243 240 237 231 235 238 238 243 243 239 241 240 237 216 195 207 218 226 228 235 240
281 264 255 291 323 255 234 220 220 217 225 222 225 231 231 226 229 231 229 228 228 239 235 230 221 244 239 237 235 231 223 218 223 222 222 199 196 210 206 211 219 204 194
272 269 261 235 237 242 237 228 225 224 221 225 228 228 233 225 219 213 213 215 215 215 220 219 220 212 206 225 217 215 205 208 209 211 197 192 195 195 192 196 197 199 201
260 268 261 243 236 240 231 241 236 231 223 227 230 229 225 223 221 211 199 197 203 209 201 194 194 202 210 209 206 204 201 203 205 205 200 194 191 184 182 182 187 192 202
247 254 257 254 236 241 239 233 237 235 228 229 239 241 238 238 217 211 199 198 199 202 197 208 210 214 216 214 206 205 205 202 197 191 186 183 184 186 182 183 186 188 177
243 249 255 256 253 246 240 242 240 249 237 238 240 243 239 229 214 210 204 203 207 199 216 212 219 218 225 219 215 214 206 197 181 182 181 182 183 186 181 185 189 184 183
247 252 251 257 253 244 245 244 244 246 241 236 235 231 227 219 210 202 196 193 187 204 221 225 225 226 225 224 220 213 202 187 185 182 184 183 184 185 195 192 195 199 189
243 248 248 247 247 250 250 246 236 240 244 240 219 217 215 211 200 199 200 192 198 207 216 226 221 220 217 214 216 209 202 199 189 185 186 187 190 194 200 198 189 190 206
244 242 249 248 245 245 235 235 234 227 224 228 208 209 200 194 183 182 191 206 208 208 214 223 221 215 218 216 207 202 201 196 191 191 190 194 197 207 210 207 201 183 208
243 240 216 233 235 224 227 234 226 222 221 221 203 208 195 191 193 191 190 212 215 215 213 213 216 210 214 208 207 202 200 199 199 198 194 197 204 212 221 218 222 215 214
235 227 225 227 227 209 221 230 224 222 215 197 199 198 204 195 198 199 203 214 217 219 218 215 216 204 210 205 207 203 201 202 204 202 200 199 202 207 216 228 224 225 224
227 221 232 232 224 239 201 213 197 185 174 195 220 166 188 197 204 206 209 212 212 213 213 210 215 213 207 204 210 209 208 209 209 210 210 207 208 211 215 225 231 231 228
220 224 226 228 208 215 196 184 180 170 178 155 199 190 185 186 208 208 210 209 207 207 207 206 211 211 206 208 213 215 219 221 211 215 219 216 216 217 227 224 232 233 235
230 231 234 219 191 187 172 179 175 185 196 192 191 193 197 202 211 213 208 209 208 210 211 209 211 214 215 212 221 220 224 219 219 218 212 226 225 223 223 227 236 236 232
226 231 249 221 183 182 167 160 256 267 249 247 229 226 224 209 212 212 210 211 214 217 218 217 219 218 218 222 226 229 230 225 225 223 220 228 228 230 227 226 229 234 239